Temp
12 12 12 12 13 13 13 12 12 13 13 13 13 12 12 12 12 12 10 10 11 11 10 10 10 10 10 10 10 10 10 10 10 10 10 10 10 9 9 9 9 9 9 9 9 9 8 8 7
13 12 12 12 12 12 13 12 12 13 13 13 13 13 12 12 12 11 10 11 11 11 10 10 10 10 10 10 10 10 9 9 10 10 10 9 9 9 9 9 9 9 9 9 9 9 8 8 8
13 12 12 12 12 12 12 12 12 12 12 12 13 14 13 12 11 11 11 10 10 10 10 10 10 10 9 9 9 9 9 9 9 9 9 9 9 9 9 9 9 9 9 9 9 9 8 8 8
12 12 12 12 12 12 12 12 12 13 12 12 12 13 12 10 10 11 11 11 10 10 10 10 11 11 10 10 10 9 9 9 9 9 9 8 8 9 9 9 9 9 9 9 9 8 8 8 8
11 11 11 11 11 11 12 12 12 12 12 11 11 12 10 10 10 10 10 10 10 9 10 10 10 10 11 11 11 11 10 10 9 9 9 8 8 8 8 8 8 8 8 8 8 8 8 8 8
10 11 11 11 11 11 11 11 11 12 12 11 11 11 10 10 10 10 10 10 10 10 10 10 10 10 10 10 10 10 10 11 10 9 9 8 8 8 8 8 7 7 7 7 8 8 8 8 8
10 10 10 11 11 11 11 11 11 11 12 12 11 11 10 9 10 10 10 10 10 10 10 10 10 10 10 10 10 10 10 10 10 10 10 9 9 8 8 7 7 7 7 7 7 7 7 7 7
9 9 10 10 10 11 11 11 11 11 11 11 10 11 11 10 10 10 10 10 10 10 10 10 10 10 9 9 9 9 9 9 9 9 9 9 9 9 8 8 8 7 7 7 7 7 7 7 7
9 9 9 10 10 11 11 11 10 10 10 10 10 10 10 10 10 10 9 9 9 9 9 9 9 9 9 9 9 9 9 9 9 8 8 8 8 8 8 8 8 8 8 8 7 7 7 7 7
8 9 9 9 10 10 10 10 10 10 9 10 10 10 9 10 9 9 9 9 9 8 8 8 8 8 8 8 8 8 8 8 8 8 8 8 8 8 8 8 8 8 7 8 7 7 7 7 7
8 9 9 9 9 9 10 10 10 10 10 10 10 10 9 9 9 9 9 8 8 8 8 7 7 7 7 7 8 8 8 8 8 8 7 7 8 7 7 7 7 7 7 7 7 7 6 6 6
8 8 8 9 8 8 9 9 10 9 9 9 10 9 9 9 8 9 8 8 8 8 7 7 7 8 8 8 8 8 8 8 8 7 7 7 7 7 7 7 7 7 7 6 6 6 6 6 6
7 8 8 8 8 8 8 9 9 9 8 9 9 9 9 8 7 7 7 7 7 7 7 7 7 8 8 8 8 8 8 8 7 7 7 7 7 7 7 7 7 6 6 6 6 6 5 6 6
7 8 8 8 8 8 8 8 8 8 8 9 9 9 8 9 8 8 8 7 8 7 7 7 7 7 7 7 7 8 8 8 8 7 7 7 7 6 6 6 6 6 6 6 5 5 5 5 5
7 7 7 7 7 7 8 8 8 8 8 8 8 8 8 8 8 8 8 8 7 6 6 7 7 7 7 7 7 7 7 7 7 7 7 7 6 6 6 6 6 6 6 6 5 5 5 5 5
7 7 7 7 7 7 7 8 8 8 8 8 8 8 8 8 8 8 8 7 7 6 6 6 6 6 6 6 7 6 6 6 6 6 6 6 6 6 5 5 6 6 6 6 6 6 5 5 4
6 6 7 7 8 7 7 8 8 8 8 7 8 8 8 8 8 8 8 7 6 6 6 6 6 6 6 6 6 6 6 6 6 6 5 5 5 5 5 5 5 5 5 5 5 5 5 6 5
6 6 7 7 8 8 7 7 8 8 8 8 8 8 8 7 7 7 7 7 6 5 5 5 5 5 6 6 6 6 6 5 5 5 5 5 5 5 5 5 5 5 5 5 5 4 4 5 5
6 5 5 7 7 7 7 7 7 8 7 7 8 8 7 7 7 7 7 6 6 5 5 5 5 5 5 5 5 5 5 5 5 5 4 4 4 4 4 4 4 4 4 4 4 4 4 4 4
5 5 5 6 6 6 7 7 7 7 8 8 8 7 7 7 7 7 7 6 5 5 5 5 5 5 5 5 4 4 4 4 4 3 3 3 3 3 4 4 4 4 4 4 4 4 4 4 3
4 4 5 5 6 6 5 6 7 7 6 7 7 6 6 6 7 7 6 6 5 5 5 5 4 4 4 4 4 3 3 3 3 3 3 3 3 3 3 3 3 3 3 3 3 3 3 3 2
4 5 5 4 4 3 5 4 6 7 6 6 7 6 6 6 6 6 7 6 5 4 4 5 4 4 4 3 3 3 2 2 2 2 2 2 2 2 2 2 2 2 2 2 2 2 2 2 2
4 4 4 4 4 4 4 4 5 6 6 6 6 6 6 6 6 6 6 5 5 4 4 4 4 4 3 2 2 2 2 2 2 2 2 1 1 1 1 1 1 1 1 1 1 1 1 1 1
2 3 3 3 3 2 4 4 5 5 6 6 7 6 6 6 6 6 5 4 4 4 4 4 4 3 3 2 2 1 1 1 1 1 1 0 0 0 0 0 1 1 1 1 0 0 -0 -0 -0
2 2 1 0 -0 2 4 4 6 6 6 6 7 7 6 6 6 6 5 4 3 4 4 4 3 3 2 1 1 0 0 0 0 -0 -1 -1 -1 -0 -0 -0 -0 -0 0 0 -0 -1 -2 -2 -1
3 2 2 1 -1 2 4 4 4 5 5 6 6 6 5 5 6 5 4 3 3 3 4 3 3 3 2 1 0 0 -0 -1 -1 -1 -1 -1 -1 -1 -1 -1 -1 -1 -1 -1 -1 -3 -3 -3 -3
2 1 2 2 1 0 3 4 4 4 5 5 5 6 6 5 5 5 4 2 3 3 3 3 2 2 1 0 -0 -0 -1 -1 -2 -2 -2 -2 -2 -2 -2 -2 -2 -2 -3 -3 -4 -4 -5 -4 -4
2 3 2 1 -1 -1 2 3 4 4 5 5 5 5 6 5 5 5 3 2 3 2 2 2 1 1 0 -0 -1 -1 -2 -2 -2 -3 -3 -2 -2 -2 -3 -3 -3 -4 -5 -5 -5 -5 -6 -6 -5
2 1 2 3 2 1 1 2 3 4 4 4 4 5 5 5 5 4 3 2 2 2 2 1 1 -0 -0 -1 -2 -2 -2 -3 -3 -3 -3 -3 -3 -3 -4 -4 -5 -5 -5 -6 -6 -6 -6 -6 -6
1 2 1 1 1 2 2 2 3 3 3 4 4 4 5 5 5 4 2 1 1 1 1 0 -0 -1 -1 -1 -2 -2 -3 -3 -4 -3 -3 -3 -4 -4 -5 -5 -6 -6 -6 -6 -7 -7 -6 -6 -6
Height
3156 3155 3155 3156 3160 3157 3155 3156 3157 3157 3159 3158 3161 3162 3164 3162 3161 3164 3161 3161 3165 3166 3168 3169 3170 3171 3172 3172 3173 3174 3174 3174 3173 3173 3173 3172 3172 3171 3171 3170 3170 3169 3169 3169 3168 3168 3167 3166 3166
3155 3154 3155 3155 3157 3155 3155 3154 3154 3157 3157 3159 3161 3161 3161 3161 3160 3160 3163 3164 3165 3166 3166 3168 3169 3170 3171 3171 3172 3172 3173 3173 3173 3173 3172 3172 3172 3171 3171 3171 3170 3170 3170 3169 3169 3169 3168 3167 3167
3153 3153 3155 3155 3155 3155 3155 3155 3154 3155 3156 3158 3159 3159 3159 3159 3160 3162 3164 3164 3163 3163 3164 3165 3167 3168 3169 3170 3170 3171 3171 3172 3171 3171 3171 3171 3171 3171 3171 3171 3170 3170 3170 3170 3170 3170 3169 3168 3167
3151 3153 3154 3153 3154 3155 3155 3155 3154 3154 3155 3155 3155 3158 3158 3159 3162 3163 3162 3163 3163 3163 3163 3164 3165 3165 3166 3167 3168 3169 3169 3170 3170 3170 3170 3170 3170 3170 3169 3169 3170 3170 3170 3170 3170 3170 3170 3169 3168
3150 3150 3151 3151 3152 3152 3154 3155 3154 3153 3155 3155 3154 3155 3156 3158 3159 3160 3161 3161 3162 3163 3164 3165 3165 3165 3166 3167 3167 3167 3167 3168 3168 3168 3168 3168 3168 3168 3168 3168 3167 3168 3168 3168 3168 3168 3168 3168 3168
3148 3148 3148 3149 3150 3151 3153 3153 3154 3153 3154 3153 3153 3152 3154 3156 3157 3159 3160 3161 3162 3163 3164 3164 3165 3165 3166 3166 3166 3167 3166 3166 3166 3165 3166 3165 3165 3165 3165 3165 3166 3165 3165 3166 3166 3166 3165 3165 3165
3146 3147 3147 3147 3149 3148 3149 3150 3152 3154 3154 3153 3151 3151 3154 3155 3156 3157 3159 3160 3162 3162 3163 3163 3163 3164 3164 3164 3165 3165 3165 3165 3165 3165 3164 3163 3162 3162 3162 3162 3162 3162 3162 3162 3163 3163 3163 3162 3162
3145 3145 3146 3147 3147 3148 3147 3146 3148 3151 3152 3151 3151 3151 3152 3153 3155 3156 3157 3159 3160 3161 3161 3162 3162 3162 3162 3162 3162 3162 3162 3162 3162 3162 3161 3161 3161 3159 3159 3158 3158 3158 3157 3157 3157 3157 3158 3158 3159
3142 3144 3144 3145 3146 3146 3147 3146 3143 3147 3148 3148 3149 3150 3151 3152 3154 3155 3156 3158 3159 3160 3160 3160 3159 3159 3159 3159 3158 3158 3158 3158 3158 3158 3158 3158 3158 3158 3157 3156 3155 3155 3154 3153 3152 3152 3152 3153 3153
3140 3140 3142 3143 3142 3143 3144 3146 3145 3144 3143 3146 3148 3148 3149 3150 3152 3153 3153 3154 3155 3155 3156 3156 3156 3155 3154 3154 3153 3153 3154 3154 3154 3154 3154 3154 3153 3153 3153 3153 3152 3152 3151 3151 3149 3147 3147 3148 3147
3135 3137 3141 3141 3141 3141 3142 3142 3142 3142 3140 3144 3145 3147 3148 3148 3148 3150 3151 3151 3151 3151 3150 3150 3150 3149 3149 3148 3148 3148 3148 3149 3150 3149 3149 3148 3148 3148 3148 3148 3147 3147 3146 3145 3144 3144 3144 3143 3142
3132 3134 3137 3138 3139 3140 3141 3141 3139 3139 3140 3139 3141 3143 3145 3146 3147 3148 3149 3149 3149 3149 3147 3145 3144 3143 3142 3142 3141 3141 3142 3143 3143 3143 3144 3143 3142 3141 3141 3141 3141 3140 3140 3139 3139 3139 3139 3138 3137
3127 3131 3131 3135 3136 3137 3138 3139 3138 3136 3137 3138 3138 3139 3141 3143 3144 3144 3145 3146 3146 3144 3142 3140 3139 3137 3137 3136 3136 3135 3135 3135 3135 3136 3136 3136 3136 3135 3135 3134 3134 3133 3133 3133 3132 3132 3132 3131 3132
3125 3126 3127 3130 3132 3133 3134 3135 3135 3132 3134 3136 3135 3136 3138 3141 3141 3142 3141 3142 3141 3140 3138 3135 3133 3131 3131 3130 3129 3129 3129 3129 3129 3128 3128 3128 3128 3128 3128 3127 3127 3126 3126 3125 3124 3124 3123 3122 3123
3123 3124 3122 3123 3127 3128 3129 3127 3129 3129 3130 3131 3132 3133 3136 3137 3138 3139 3138 3138 3137 3136 3133 3131 3129 3126 3125 3123 3123 3123 3123 3123 3123 3122 3122 3121 3121 3120 3120 3120 3119 3118 3117 3117 3117 3116 3115 3114 3113
3119 3119 3118 3120 3122 3124 3125 3119 3129 3124 3124 3126 3127 3126 3129 3131 3134 3134 3135 3134 3132 3130 3128 3126 3124 3122 3120 3118 3118 3118 3117 3117 3116 3116 3116 3115 3114 3114 3113 3113 3112 3111 3110 3109 3108 3107 3106 3105 3104
3114 3110 3111 3116 3118 3120 3119 3114 3123 3118 3118 3119 3120 3122 3123 3125 3127 3129 3129 3129 3128 3125 3123 3120 3118 3117 3116 3114 3113 3113 3112 3111 3110 3110 3109 3109 3108 3107 3107 3107 3105 3104 3103 3102 3101 3100 3098 3097 3096
3106 3106 3106 3108 3115 3115 3113 3108 3116 3114 3110 3110 3113 3115 3117 3120 3122 3122 3123 3123 3123 3122 3119 3117 3115 3112 3110 3109 3108 3108 3106 3105 3105 3104 3103 3102 3101 3100 3099 3099 3098 3097 3095 3093 3091 3090 3088 3086 3085
3103 3103 3103 3103 3108 3106 3104 3103 3106 3107 3105 3104 3105 3108 3111 3114 3115 3115 3116 3117 3117 3118 3116 3113 3111 3109 3107 3106 3105 3104 3103 3102 3101 3100 3099 3097 3096 3094 3093 3092 3090 3089 3087 3085 3083 3080 3079 3077 3075
3097 3096 3095 3097 3101 3100 3098 3093 3099 3095 3096 3098 3100 3102 3105 3108 3109 3109 3109 3111 3111 3112 3110 3108 3106 3105 3103 3101 3100 3100 3099 3097 3096 3096 3095 3093 3092 3091 3089 3087 3085 3082 3080 3078 3075 3073 3071 3069 3065
3090 3089 3090 3091 3096 3093 3091 3084 3087 3089 3088 3091 3092 3096 3099 3102 3103 3103 3103 3104 3105 3106 3105 3103 3102 3101 3099 3097 3096 3095 3093 3092 3091 3091 3091 3089 3087 3085 3084 3081 3079 3076 3074 3071 3067 3065 3063 3060 3059
3079 3084 3086 3087 3090 3086 3087 3072 3076 3081 3081 3080 3085 3085 3090 3094 3097 3097 3096 3097 3098 3100 3100 3099 3097 3095 3094 3093 3092 3091 3090 3088 3086 3085 3085 3085 3084 3082 3079 3076 3074 3070 3066 3063 3060 3057 3054 3051 3050
3073 3081 3082 3083 3082 3084 3077 3080 3062 3074 3070 3072 3075 3079 3083 3087 3089 3090 3091 3092 3092 3094 3094 3093 3092 3091 3090 3089 3089 3087 3086 3084 3082 3082 3081 3080 3078 3075 3073 3070 3066 3062 3059 3055 3053 3050 3046 3042 3040
3073 3078 3077 3076 3076 3072 3068 3076 3043 3058 3061 3067 3069 3071 3075 3078 3081 3082 3083 3084 3087 3089 3088 3087 3087 3087 3086 3085 3085 3084 3083 3081 3080 3079 3077 3075 3072 3069 3066 3062 3058 3054 3051 3047 3044 3040 3038 3034 3030
3070 3070 3073 3072 3069 3051 3060 3068 3029 3049 3054 3059 3061 3064 3068 3071 3072 3072 3074 3077 3080 3083 3082 3082 3082 3081 3081 3081 3081 3081 3080 3078 3076 3074 3073 3070 3067 3064 3060 3056 3053 3049 3044 3040 3035 3031 3029 3027 3021
3059 3060 3057 3056 3057 3049 3057 3044 3037 3043 3050 3054 3056 3060 3061 3062 3063 3063 3066 3070 3073 3075 3075 3075 3076 3076 3076 3076 3076 3076 3075 3073 3071 3068 3067 3065 3062 3058 3054 3050 3046 3042 3038 3032 3027 3024 3023 3020 3014
3049 3050 3049 3051 3048 3048 3040 3035 3037 3039 3042 3046 3048 3049 3050 3051 3053 3055 3059 3063 3067 3067 3068 3069 3071 3070 3070 3070 3070 3070 3069 3068 3066 3064 3062 3060 3056 3052 3050 3045 3040 3037 3033 3026 3023 3020 3019 3014 3009
3039 3046 3047 3045 3049 3047 3033 3032 3027 3029 3035 3037 3040 3042 3041 3042 3045 3047 3051 3057 3060 3061 3062 3063 3064 3064 3065 3065 3065 3064 3063 3062 3060 3058 3056 3053 3050 3047 3044 3040 3036 3032 3028 3022 3020 3017 3016 3011 3006
3034 3033 3036 3035 3034 3030 3029 3024 3023 3025 3029 3030 3033 3035 3034 3035 3038 3041 3045 3050 3053 3055 3056 3059 3059 3058 3059 3059 3058 3057 3056 3056 3053 3051 3049 3047 3044 3040 3036 3033 3031 3027 3023 3019 3016 3015 3013 3008 3005
3026 3026 3028 3024 3025 3022 3022 3013 3018 3019 3021 3022 3025 3028 3031 3032 3033 3036 3040 3045 3048 3049 3051 3053 3053 3052 3053 3053 3052 3050 3050 3050 3047 3045 3042 3038 3036 3033 3031 3028 3025 3023 3020 3016 3013 3011 3008 3005 3003
Wind_Speed
9 8 5 2 2 4 6 3 11 12 12 8 8 8 15 14 18 6 17 18 13 10 11 12 10 10 9 8 7 6 7 6 6 6 5 4 3 2 1 2 3 4 5 5 5 4 4 5 5
9 8 5 3 3 5 10 9 12 11 11 10 5 4 6 6 10 9 13 11 11 11 14 14 12 11 10 8 7 7 7 7 7 8 8 8 7 7 5 4 3 4 5 5 5 5 5 6 7
9 9 6 5 8 5 9 12 11 9 8 6 6 6 7 4 10 6 8 10 15 16 18 17 15 14 12 10 9 9 9 9 8 9 10 10 10 9 9 9 8 7 7 7 7 7 7 8 8
9 10 8 6 10 4 9 15 10 12 10 9 8 7 10 6 3 4 7 9 12 14 17 18 17 16 15 14 12 11 12 11 11 12 12 12 12 12 12 11 12 11 11 10 10 10 9 9 10
10 11 10 9 8 6 16 13 13 15 13 10 11 13 12 10 8 9 9 12 12 12 13 14 16 14 13 13 13 13 12 12 11 11 12 12 13 14 14 15 14 14 14 14 14 13 13 12 12
11 14 9 10 12 12 15 19 19 19 15 13 12 14 14 12 11 8 6 10 13 14 14 14 14 14 14 14 13 14 14 13 13 13 12 12 12 12 13 14 16 16 16 17 17 17 16 16 15
13 14 12 12 11 10 19 17 18 19 16 14 13 11 11 15 12 8 7 9 13 15 16 17 16 16 15 15 16 15 15 15 17 17 16 15 13 13 13 14 15 16 17 18 19 20 20 20 19
14 16 14 11 9 12 18 20 17 14 16 17 14 15 16 14 11 9 10 11 11 15 17 18 18 19 19 19 19 19 19 18 18 17 18 19 18 17 16 15 16 17 18 19 20 21 22 23 24
17 17 14 12 7 12 19 21 17 16 16 17 16 18 16 14 14 14 15 15 14 14 15 17 19 21 23 24 24 24 24 23 23 21 20 19 21 22 22 21 21 21 20 19 20 20 21 23 25
19 22 13 10 8 18 23 25 24 20 20 19 20 19 17 17 17 18 17 17 18 20 20 21 22 23 24 25 27 28 28 27 26 25 24 24 25 24 25 26 26 25 25 25 25 25 25 26 28
23 25 14 12 10 15 21 20 20 24 25 21 21 22 20 19 19 19 19 20 20 21 25 26 25 26 27 28 29 29 30 30 29 30 30 30 30 30 30 29 27 28 29 30 30 28 28 28 30
24 24 20 18 10 10 16 21 24 24 21 21 21 20 18 18 17 17 18 19 22 26 29 28 28 28 27 27 30 31 32 32 32 33 33 34 35 35 34 34 33 33 32 31 31 28 29 29 30
27 23 23 22 18 16 16 19 24 24 22 23 22 22 21 21 20 20 20 22 26 27 26 29 30 28 26 24 24 26 28 29 31 33 34 36 37 38 38 38 36 35 34 35 35 33 32 35 34
23 27 24 23 22 23 23 24 21 28 26 27 28 26 24 24 25 26 26 25 25 25 27 30 28 26 25 25 25 25 25 26 28 29 31 32 34 34 36 37 38 37 37 37 38 41 43 43 42
29 27 27 26 24 26 26 30 28 31 30 30 29 29 28 28 28 29 26 24 24 21 25 24 25 25 25 25 25 24 23 23 24 24 26 27 29 31 34 36 38 38 39 41 44 46 47 48 48
23 32 33 30 22 27 28 34 25 33 30 33 34 34 31 27 27 27 24 24 21 24 26 26 24 23 24 24 23 21 20 20 20 21 22 24 25 28 30 33 34 35 37 40 42 45 46 47 50
27 28 31 34 32 29 31 37 30 35 35 31 33 32 29 27 24 24 25 26 23 24 28 29 25 24 23 23 23 21 20 19 19 20 21 22 23 24 26 28 30 32 34 37 39 40 43 45 45
35 31 33 32 28 31 35 39 34 38 35 32 34 32 32 25 24 27 26 28 25 25 26 29 25 25 25 24 23 21 20 20 19 19 20 21 22 24 25 27 29 31 33 35 36 38 38 41 41
33 27 28 29 24 30 34 27 24 31 40 36 35 34 27 25 25 28 31 29 27 26 26 28 25 23 23 23 21 19 18 17 16 16 17 19 21 22 24 26 28 30 32 35 37 38 39 40 41
31 34 37 36 27 28 33 40 26 32 37 35 32 28 27 26 26 28 32 30 29 28 28 29 21 22 22 20 18 17 17 17 17 16 18 20 22 24 26 27 28 29 31 33 35 36 37 38 39
34 36 36 38 29 29 28 37 33 29 36 36 35 29 30 28 29 30 34 32 31 29 27 25 23 22 19 18 18 17 17 18 19 20 21 23 26 28 30 31 32 32 33 33 34 37 37 37 37
35 33 35 33 28 23 21 18 34 30 37 43 38 38 37 35 32 33 35 35 33 27 25 22 23 22 22 19 17 18 18 19 21 22 23 24 25 26 27 29 30 31 32 33 35 36 37 36 36
39 26 27 26 30 29 38 21 30 36 41 46 44 40 39 37 36 36 35 34 32 30 24 21 21 21 19 18 18 18 19 19 20 22 24 26 27 28 30 31 32 33 33 35 36 36 36 35 35
19 29 16 19 25 19 30 26 45 37 45 45 43 42 44 42 40 40 38 36 35 24 21 20 19 21 20 19 18 19 19 19 21 24 25 26 27 28 30 32 34 35 36 36 37 37 36 36 34
17 22 5 7 8 13 16 20 54 12 27 37 40 43 43 41 41 42 39 37 27 22 21 19 20 20 20 19 19 19 20 21 23 25 25 26 27 28 30 31 33 34 35 36 37 37 35 33 30
34 31 15 7 5 8 22 21 31 20 28 30 26 30 34 35 33 33 38 34 29 25 21 20 21 20 20 20 20 21 22 23 23 24 24 25 26 28 29 30 32 33 34 35 34 30 28 26 26
41 33 42 30 16 4 15 33 41 42 37 34 36 37 35 38 32 30 38 34 30 26 22 21 21 20 21 21 21 22 22 23 24 26 25 26 27 29 30 31 31 32 32 30 25 22 19 20 21
33 34 30 22 10 17 22 23 27 14 20 23 30 31 34 36 34 33 36 32 30 24 22 21 21 21 21 22 23 23 23 23 25 26 25 26 28 29 30 30 31 30 27 24 21 19 19 20 20
32 40 36 29 38 17 19 24 46 45 36 29 27 25 26 27 30 31 34 33 26 24 22 22 22 20 21 22 24 24 24 24 25 25 25 26 28 29 28 28 28 26 25 23 21 21 21 21 20
13 29 41 31 29 25 38 42 39 18 14 21 28 26 24 25 27 30 33 32 25 24 23 22 19 17 20 22 23 24 24 24 25 25 25 26 26 26 25 25 24 24 23 21 19 19 20 20 20
Wind_Direction
247 246 237 215 127 164 171 163 166 162 162 187 159 179 172 167 173 189 173 164 161 165 184 195 200 204 204 208 217 228 241 240 242 251 252 252 257 267 302 342 359 11 15 17 12 359 347 330 326
243 240 231 168 160 178 190 155 194 218 219 212 212 208 182 170 189 188 171 181 191 190 194 201 205 208 212 216 227 238 248 252 259 264 263 261 261 265 266 272 289 312 326 338 338 335 334 327 325
246 235 213 179 165 123 146 151 172 169 175 178 228 246 256 187 159 175 170 199 194 199 200 205 208 212 216 222 232 246 258 265 265 265 265 263 264 266 269 271 271 272 282 293 303 309 315 317 315
239 232 213 191 156 200 164 178 179 194 198 219 226 232 238 205 164 191 200 207 201 207 209 211 214 218 220 222 237 250 261 270 275 278 276 270 266 265 266 265 270 270 270 274 280 287 293 301 305
234 228 211 190 162 155 168 184 204 207 204 199 204 214 213 202 203 208 199 196 200 209 220 223 225 231 241 247 248 246 252 265 274 279 280 278 273 271 268 269 267 266 266 266 265 269 276 281 287
227 220 208 190 183 175 175 192 199 213 215 213 208 229 212 201 203 211 208 202 209 212 218 228 238 242 248 255 257 263 270 276 268 265 268 270 269 268 269 270 272 270 268 267 267 266 265 267 270
226 231 221 180 177 205 189 199 211 218 225 240 249 234 231 203 221 242 244 232 230 226 227 232 238 246 251 253 258 266 274 284 287 284 280 270 263 260 260 264 264 265 267 267 268 268 267 266 265
223 231 228 214 204 173 186 205 216 225 241 226 218 247 255 247 235 249 263 267 256 248 249 250 254 257 259 260 263 266 269 272 276 279 282 275 270 263 262 262 260 259 258 262 265 267 267 267 265
223 230 229 219 225 218 202 209 214 219 224 219 224 244 253 254 249 253 259 269 271 267 265 267 265 265 264 263 264 266 268 268 268 271 276 274 275 276 275 273 270 271 265 260 262 263 263 268 266
220 230 219 191 210 196 199 206 220 221 220 225 242 237 232 254 262 271 276 283 287 288 286 281 275 271 267 264 263 264 266 266 268 269 271 270 267 273 273 276 275 275 274 272 269 268 269 273 273
226 232 210 181 177 194 200 202 223 230 232 240 258 259 253 256 262 271 279 286 290 294 298 291 282 275 271 268 265 263 264 265 265 266 268 269 271 272 273 272 271 274 277 273 271 272 277 276 277
225 231 219 198 206 217 220 220 223 228 238 247 250 255 265 268 268 272 276 284 289 292 292 287 285 282 278 271 268 265 264 263 263 262 263 266 269 272 274 274 272 274 278 273 270 277 280 283 285
229 225 223 212 217 225 222 223 226 233 228 237 242 252 260 270 271 270 272 279 288 292 292 291 288 284 281 279 274 271 270 268 267 266 264 262 264 267 270 273 272 274 273 271 270 269 268 276 279
223 228 225 224 227 241 242 235 240 243 241 240 242 248 253 262 269 275 281 290 291 292 293 287 285 283 283 281 278 274 272 271 270 269 269 269 269 266 266 267 268 268 269 267 270 273 275 280 280
226 227 228 229 234 242 244 240 237 251 252 248 245 246 249 256 264 270 277 286 290 297 306 294 283 281 281 278 275 274 273 272 271 271 271 271 272 272 272 273 275 271 273 272 270 268 271 275 276
241 240 236 231 228 238 247 252 247 253 256 253 252 253 256 258 260 264 272 286 295 306 312 311 294 285 281 278 275 274 274 275 275 274 272 272 272 273 274 275 277 277 276 277 278 277 277 277 279
246 246 246 247 240 240 246 260 260 259 254 253 248 249 251 259 258 265 278 297 301 302 313 316 301 292 286 283 282 285 284 283 282 283 283 283 282 281 280 280 280 281 280 281 282 281 282 283 280
241 242 247 248 249 254 255 257 260 262 258 259 250 251 253 251 260 275 284 299 296 295 307 313 304 297 294 292 292 293 292 293 293 292 293 294 293 294 296 296 296 295 294 291 290 288 286 285 280
250 253 257 259 256 256 258 257 257 249 250 247 250 248 242 245 266 277 285 291 291 293 302 310 305 299 298 297 296 295 294 293 296 300 304 305 305 304 304 302 301 300 300 300 300 299 299 294 291
250 253 255 260 251 257 260 261 271 251 247 253 251 235 239 248 267 278 286 291 287 289 297 307 303 301 299 298 298 299 302 304 306 310 311 311 310 309 307 305 305 303 301 300 299 297 295 293 293
248 246 251 254 262 255 267 265 253 245 247 243 244 244 244 251 264 275 283 285 281 283 291 299 302 301 300 299 301 303 306 307 309 309 312 313 313 311 308 305 302 300 297 296 298 297 296 294 290
256 251 253 256 257 260 257 271 254 242 239 237 240 241 237 242 257 269 279 279 274 276 286 292 299 301 299 298 299 302 305 309 314 318 317 313 308 305 302 301 300 299 300 299 295 292 290 290 288
258 269 261 256 255 264 258 262 262 243 237 235 239 241 245 251 259 265 269 264 268 271 276 286 294 296 296 297 298 302 307 311 313 313 313 311 311 311 310 308 306 304 301 298 294 290 287 286 286
278 254 268 253 245 248 246 234 265 239 237 238 243 247 249 251 256 263 254 250 253 254 263 280 288 291 290 290 293 298 303 307 309 309 310 312 313 311 309 310 310 308 305 300 295 291 286 283 284
250 232 255 234 208 240 231 226 248 246 248 246 254 254 248 253 262 262 259 253 251 244 256 269 280 284 284 284 289 292 298 302 306 311 314 314 312 310 311 311 309 307 304 301 297 293 288 283 281
236 225 215 205 198 243 231 233 247 264 256 252 245 251 254 260 256 255 251 243 244 244 254 266 272 277 279 281 286 292 297 303 308 313 315 312 310 311 311 309 309 308 305 302 300 296 292 289 288
239 227 237 252 268 290 233 246 257 257 257 259 260 258 259 252 247 247 245 241 239 244 249 261 266 268 270 276 282 289 295 304 311 315 314 310 312 313 311 309 308 307 306 305 305 303 307 305 302
246 249 231 219 234 247 253 252 242 250 253 255 259 260 255 246 242 247 240 236 235 243 251 257 260 266 271 274 280 286 295 302 309 313 312 311 312 310 310 311 310 310 310 307 304 308 317 319 320
241 234 233 240 222 231 249 253 257 257 261 258 254 255 250 240 237 237 237 230 236 245 253 257 262 269 273 273 278 284 290 297 305 309 309 309 310 311 312 311 311 314 313 305 298 302 309 315 317
250 239 234 232 234 236 240 252 254 258 273 257 252 245 235 232 235 236 235 229 242 248 250 256 261 271 276 279 282 286 290 295 302 306 306 308 309 310 309 311 314 315 314 306 304 302 305 313 314